Regional Weather Roundup
Issued by NWS

Home | Current Version | Previous Version | Text Only | Print | Product List | Glossary On
Versions: 1 2 3 4 5 6 7 8 9 10 11 12 13 14 15 16 17 18 19 20 21 22 23 24 25 26 27 28 29 30 31 32 33 34 35 36 37 38 39 40 41 42 43 44 45 46 47 48 49 50
000
ASUS43 KLSX 280210
RWRMO

WEATHER SUMMARY FOR MISSOURI
NATIONAL WEATHER SERVICE SPRINGFIELD MO
900 PM CDT TUE JUN 27 2017

NOTE: "FAIR" INDICATES FEW OR NO CLOUDS BELOW 12,000 FEET WITH NO
       SIGNIFICANT WEATHER AND/OR OBSTRUCTIONS TO VISIBILITY.
       CURRENT SKY AND/OR WEATHER CONDITIONS ARE NOT AVAILABLE FOR
       CHILLICOTHE AND FARMINGTON.

MOZ001>031-035>038-043-044-053-054-280300-
...NORTHERN AND WESTERN MISSOURI...

CITY           SKY/WX    TMP DP  RH WIND       PRES   REMARKS
KANSAS CTY INT PTCLDY    76  66  71 S15G25    29.89S
KANSAS C DTWN  CLEAR     79  66  64 S9        29.88F
LEE`S SUMMIT   CLEAR     77  67  71 S13       29.91F
ST JOSEPH      PTCLDY    76  67  73 S10       29.87R
CHILLICOTHE      N/A     76  64  66 SE7       29.92F
KIRKSVILLE     PTCLDY    67  57  70 SE8       29.96F

$$
MOZ066>068-077>081-088>096-101>105-280300-
...SOUTHWEST MISSOURI...

CITY           SKY/WX    TMP DP  RH WIND       PRES   REMARKS
SPRINGFIELD    CLEAR     75  64  68 S10       29.98S
JOPLIN         CLEAR     78  66  66 SE10      29.95S
BRANSON        MOCLDY    73  64  73 SE7       30.02F

$$
MOZ032>034-039>042-045>050-055>058-069>072-280300-
...CENTRAL MISSOURI...

CITY           SKY/WX    TMP DP  RH WIND       PRES   REMARKS
COLUMBIA       CLEAR     71  62  73 SE7       29.98S
JEFFERSON CITY CLEAR     75  62  64 SE6       29.97S
ROLLA          PTCLDY    70  61  73 SE8       30.00F
SEDALIA        PTCLDY    75  68  78 SE8       29.96F
WHITEMAN AFB   PTCLDY    75  72  90 S8        29.92F
WARRENSBURG    CLEAR     73  64  73 SE8       29.92F
OSAGE BEACH    CLOUDY    73  65  75 SE3       29.99F

$$
MOZ051-052-059>065-280300-
...EAST CENTRAL MISSOURI...

CITY           SKY/WX    TMP DP  RH WIND       PRES   REMARKS
ST LOUIS INTL  PTCLDY    78  48  34 SE10      30.01F
SPIRIT OF STL  CLEAR     74  53  48 SE6       29.99F
ST CHARLES     CLEAR     70  54  56 SE7       29.99F

$$
MOZ072>076-082>087-097>100-106>115-280300-
...SOUTH CENTRAL AND SOUTHEAST MISSOURI...

CITY           SKY/WX    TMP DP  RH WIND       PRES   REMARKS
CAPE GIRARDEAU CLEAR     68  61  78 SE5       30.04S
FARMINGTON     CLEAR     70  58  65 SE6       30.05S
POPLAR BLUFF   CLOUDY    73  64  73 CALM      30.04S
WEST PLAINS    CLEAR     72  64  76 SE3       30.06S

$$



USA.gov is the U.S. government's official web portal to all federal, state and local government web resources and services.